User: anonymous   Login
Location: Trois-Rivi�res
(46.3500°N, 72.5500°W)
Time: 02:04:48
(UTC-04:00)
Language:

Cosmos 1544 - Orbit

View from above orbital plane
View from above orbital plane
View from above satellite
View from above satellite

Ground track
Ground track

The orbit data is extracted from the following two-line orbital elements,

1 14819U 84027A   15184.81698436  .00002320  00000-0  99821-4 0  9998
2 14819 082.4852 023.9750 0016586 033.7152 093.9469 15.22011567706998
Epoch (UTC): 03 July 2015 19:36:27
Eccentricity: 0.0016586
inclination: 82.4852°
perigee height: 488 km
apogee height: 511 km
right ascension of ascending node: 23.9750°
argument of perigee: 33.7152°
revolutions per day: 15.22011567
mean anomaly at epoch: 93.9469°
orbit number at epoch: 70699

The dashed part of the orbit path shows where the satellite is in the earth's shadow,  

DLR